Weather in Andriivka

Ukraine / Donetsk Region     48°49′15″N   37°31′57″E
temp.,
°C
wind,
m/s
gust,
m/s
humid.,
%
clouds,
%
prec.,
mm/h
press.,
hPa
HPBL,
m
2 july, sat
sat200:00+16nne512680 0.0 1016340
03:00+12nne38710 0.0 1017152
06:00+11nne49710 0.0 1019394
09:00+16nne67480 0.0 1019863
12:00+21n68400 0.0 10191474
15:00+23n79365 0.0 10181919
18:00+22n7104459 0.0 10182243
21:00+17n410590 0.0 1018176
3 july, sun
sun300:00+14nnw37760 0.0 1019131
03:00+12nnw34860 0.0 101959
06:00+14nw38794 0.0 1019215
09:00+21nnw68501 0.0 1018813
12:00+25n67374 0.0 10182054
15:00+26n6738100 0.0 10172682
18:00+25nnw474131 0.0 10161981
21:00+20nnw36616 0.0 101781
4 july, mon
mon400:00+18nw35720 0.0 101774
03:00+16wnw33850 0.6 101734
06:00+17nw27860 0.0 1017206
09:00+23n46610 0.0 1017823
12:00+28ne57384 0.0 10172146
15:00+29nne55324 0.0 10162690
18:00+29nne44345 0.0 10162213
21:00+24ne355088 0.0 1017100
5 july, tue
tue500:00+19e226512 0.0 101712
03:00+18e22695 0.0 101811
06:00+19ese24641 0.0 101998
09:00+22e235497 0.0 1019217
12:00+28ese33360 0.0 10191592
15:00+29ene33318 0.0 10182382
18:00+29nne23315 0.0 10182188
21:00+22ene11490 0.0 101813
6 july, wed
wed600:00+19ene22530 0.0 101816
03:00+18e22600 0.0 101815
06:00+19se24580 0.0 101995
09:00+27sse34350 0.0 1018738
12:00+30e33280 0.0 10182569
15:00+31e44260 0.0 10162607
18:00+30e44280 0.0 10162325
21:00+23ese47400 0.0 101693